• In Netherlands
  • List of Countries
  • For 7 days
  • Water Temperature
  • Satellite Maps
  • Weather Map
  • Weather Widgets
  • user-avatar
    Login

    Hourly Weather Stepanakert

    Today, 16 January, Monday

    Time Temperature Precipitation Wind Pressure Humidity
    00:00 0°C° 0 mm 1 mps 693 mmHg 84%
    01:00 -1°C° 0 mm 1 mps 693 mmHg 83%
    02:00 -1°C° 0 mm 1 mps 693 mmHg 82%
    03:00 -1°C° 0 mm 1 mps 693 mmHg 79%
    04:00 -1°C° 0 mm 1 mps 693 mmHg 79%
    05:00 -1°C° 0 mm 1 mps 693 mmHg 79%
    06:00 -1°C° 0 mm 1 mps 694 mmHg 79%
    07:00 0°C° 0 mm 1 mps 694 mmHg 74%
    08:00 +2°C° 0 mm 1 mps 695 mmHg 69%
    09:00 +4°C° 0 mm 1 mps 695 mmHg 60%
    10:00 +5°C° 0 mm 1 mps 695 mmHg 57%
    11:00 +6°C° 0 mm 1 mps 695 mmHg 53%
    12:00 +7°C° 0 mm 1 mps 696 mmHg 49%
    13:00 +7°C° 0 mm 1 mps 695 mmHg 51%
    14:00 +7°C° 0 mm 1 mps 695 mmHg 53%
    15:00 +7°C° 0 mm 1 mps 695 mmHg 55%
    16:00 +5°C° 0 mm 1 mps 695 mmHg 62%
    17:00 +3°C° 0 mm 1 mps 695 mmHg 69%
    18:00 +1°C° 0 mm 1 mps 695 mmHg 77%
    19:00 +1°C° 0 mm 1 mps 695 mmHg 76%
    20:00 +1°C° 0 mm 1 mps 695 mmHg 76%
    21:00 0°C° 0 mm 1 mps 695 mmHg 76%
    22:00 0°C° 0 mm 1 mps 696 mmHg 76%
    23:00 0°C° 0 mm 1 mps 696 mmHg 76%

    Tomorrow, 17 January, Tuesday

    Time Temperature Precipitation Wind Pressure Humidity
    00:00 0°C° 0 mm 1 mps 696 mmHg 77%
    01:00 0°C° 0 mm 1 mps 696 mmHg 77%
    02:00 0°C° 0 mm 1 mps 696 mmHg 76%
    03:00 -1°C° 0 mm 1 mps 696 mmHg 76%
    04:00 -1°C° 0 mm 1 mps 696 mmHg 77%
    05:00 -1°C° 0 mm 1 mps 696 mmHg 77%
    06:00 -1°C° 0 mm 1 mps 696 mmHg 77%
    07:00 +1°C° 0 mm 1 mps 696 mmHg 73%
    08:00 +2°C° 0 mm 1 mps 696 mmHg 68%
    09:00 +3°C° 0 mm 1 mps 697 mmHg 64%
    10:00 +5°C° 0 mm 1 mps 697 mmHg 61%
    11:00 +6°C° 0 mm 1 mps 697 mmHg 58%
    12:00 +7°C° 0 mm 1 mps 696 mmHg 55%
    13:00 +7°C° 0 mm 1 mps 696 mmHg 57%
    14:00 +7°C° 0 mm 1 mps 696 mmHg 59%
    15:00 +7°C° 0 mm 1 mps 696 mmHg 61%
    16:00 +5°C° 0 mm 1 mps 696 mmHg 69%
    17:00 +3°C° 0 mm 1 mps 695 mmHg 78%
    18:00 0°C° 0 mm 0 mps 695 mmHg 86%
    19:00 +1°C° 0 mm 1 mps 695 mmHg 86%
    20:00 +1°C° 0 mm 1 mps 695 mmHg 86%
    21:00 +1°C° 0 mm 1 mps 695 mmHg 86%
    22:00 0°C° 0 mm 1 mps 695 mmHg 86%
    23:00 0°C° 0 mm 1 mps 695 mmHg 85%

    Day after tomorrow, 18 January, Wednesday

    Time Temperature Precipitation Wind Pressure Humidity
    00:00 0°C° 0 mm 1 mps 695 mmHg 85%
    01:00 0°C° 0 mm 1 mps 695 mmHg 85%
    02:00 0°C° 0 mm 1 mps 695 mmHg 85%
    03:00 0°C° 0 mm 1 mps 695 mmHg 85%
    04:00 0°C° 0 mm 1 mps 695 mmHg 85%
    05:00 -1°C° 0 mm 1 mps 695 mmHg 85%
    06:00 -1°C° 0 mm 1 mps 695 mmHg 86%
    07:00 +1°C° 0 mm 1 mps 695 mmHg 82%
    08:00 +1°C° 0 mm 0 mps 696 mmHg 78%
    09:00 +3°C° 0 mm 0 mps 696 mmHg 74%
    10:00 +5°C° 0 mm 1 mps 696 mmHg 71%
    11:00 +6°C° 0 mm 1 mps 696 mmHg 68%
    12:00 +7°C° 0 mm 1 mps 696 mmHg 65%
    13:00 +7°C° 0 mm 1 mps 696 mmHg 66%
    14:00 +7°C° 0 mm 1 mps 696 mmHg 68%
    15:00 +7°C° 0 mm 1 mps 695 mmHg 70%
    16:00 +5°C° 0 mm 1 mps 695 mmHg 78%
    17:00 +3°C° 0 mm 1 mps 695 mmHg 85%
    18:00 +1°C° 0 mm 1 mps 695 mmHg 93%
    19:00 0°C° 0 mm 0 mps 695 mmHg 93%
    20:00 0°C° 0 mm 0 mps 695 mmHg 93%
    21:00 0°C° 0 mm 0 mps 696 mmHg 93%
    22:00 0°C° 0 mm 0 mps 696 mmHg 93%
    23:00 0°C° 0 mm 0 mps 695 mmHg 93%

    19 January, Thursday

    Time Temperature Precipitation Wind Pressure Humidity
    00:00 0°C° 0 mm 0 mps 695 mmHg 93%
    01:00 0°C° 0 mm 0 mps 695 mmHg 93%
    02:00 -1°C° 0 mm 0 mps 695 mmHg 93%
    03:00 0°C° 0 mm 1 mps 695 mmHg 93%
    04:00 0°C° 0 mm 1 mps 695 mmHg 93%
    05:00 0°C° 0 mm 1 mps 695 mmHg 92%
    06:00 0°C° 0 mm 1 mps 696 mmHg 92%
    07:00 +1°C° 0 mm 1 mps 696 mmHg 89%
    08:00 +2°C° 0 mm 1 mps 696 mmHg 85%
    09:00 +2°C° 0 mm 0 mps 697 mmHg 81%
    10:00 +4°C° 0 mm 1 mps 697 mmHg 76%
    11:00 +5°C° 0 mm 1 mps 696 mmHg 71%
    12:00 +6°C° 0 mm 1 mps 696 mmHg 67%
    13:00 +7°C° 0 mm 1 mps 696 mmHg 67%
    14:00 +7°C° 0 mm 1 mps 696 mmHg 67%
    15:00 +7°C° 0 mm 1 mps 696 mmHg 67%
    16:00 +5°C° 0 mm 1 mps 696 mmHg 74%
    17:00 +3°C° 0 mm 1 mps 696 mmHg 81%
    18:00 0°C° 0 mm 0 mps 696 mmHg 88%
    19:00 0°C° 0 mm 0 mps 696 mmHg 89%
    20:00 0°C° 0 mm 0 mps 696 mmHg 89%
    21:00 +1°C° 0 mm 1 mps 696 mmHg 90%
    22:00 0°C° 0 mm 0 mps 696 mmHg 91%
    23:00 -1°C° 0 mm 0 mps 697 mmHg 91%

    20 January, Friday

    Time Temperature Precipitation Wind Pressure Humidity
    00:00 -1°C° 0 mm 0 mps 697 mmHg 92%
    01:00 -1°C° 0 mm 0 mps 697 mmHg 93%
    02:00 0°C° 0 mm 1 mps 697 mmHg 94%
    03:00 0°C° 0 mm 1 mps 697 mmHg 95%
    04:00 -1°C° 0 mm 1 mps 697 mmHg 96%
    05:00 -1°C° 0 mm 1 mps 697 mmHg 96%
    06:00 -1°C° 0 mm 1 mps 698 mmHg 97%
    07:00 0°C° 0 mm 1 mps 698 mmHg 94%
    08:00 +1°C° 0 mm 1 mps 699 mmHg 91%
    09:00 +2°C° 0 mm 1 mps 699 mmHg 87%
    10:00 +2°C° 0.1 mm 2 mps 699 mmHg 83%
    11:00 +3°C° 0.1 mm 2 mps 699 mmHg 79%
    12:00 +3°C° 0.1 mm 2 mps 699 mmHg 74%
    13:00 +3°C° 0.1 mm 2 mps 699 mmHg 75%
    14:00 +3°C° 0.1 mm 2 mps 698 mmHg 77%
    15:00 +3°C° 0.1 mm 2 mps 698 mmHg 78%
    16:00 +2°C° 0.1 mm 2 mps 698 mmHg 82%
    17:00 +2°C° 0.1 mm 1 mps 698 mmHg 87%
    18:00 +1°C° 0.1 mm 1 mps 698 mmHg 91%
    19:00 +1°C° 0.1 mm 1 mps 698 mmHg 92%
    20:00 0°C° 0.1 mm 1 mps 698 mmHg 93%
    21:00 0°C° 0.1 mm 1 mps 698 mmHg 94%
    22:00 0°C° 0.1 mm 1 mps 698 mmHg 95%
    23:00 -2°C° 0.1 mm 0 mps 698 mmHg 95%

    21 January, Saturday

    Time Temperature Precipitation Wind Pressure Humidity
    00:00 -2°C° 0.1 mm 0 mps 698 mmHg 96%
    01:00 -2°C° 0 mm 0 mps 698 mmHg 96%
    02:00 -3°C° 0 mm 0 mps 698 mmHg 95%
    03:00 -3°C° 0 mm 0 mps 697 mmHg 95%
    04:00 -3°C° 0 mm 0 mps 697 mmHg 95%
    05:00 -3°C° 0 mm 0 mps 697 mmHg 96%
    06:00 -3°C° 0 mm 0 mps 697 mmHg 96%
    07:00 -2°C° 0 mm 0 mps 697 mmHg 91%
    08:00 -1°C° 0 mm 0 mps 698 mmHg 86%
    09:00 0°C° 0 mm 0 mps 698 mmHg 81%
    10:00 +2°C° 0 mm 1 mps 698 mmHg 76%
    11:00 +3°C° 0 mm 1 mps 698 mmHg 71%
    12:00 +4°C° 0 mm 1 mps 698 mmHg 66%
    13:00 +4°C° 0 mm 1 mps 697 mmHg 67%
    14:00 +4°C° 0 mm 1 mps 697 mmHg 67%
    15:00 +4°C° 0 mm 1 mps 697 mmHg 68%
    16:00 +3°C° 0 mm 1 mps 697 mmHg 75%
    17:00 +1°C° 0 mm 1 mps 697 mmHg 82%
    18:00 -1°C° 0 mm 0 mps 697 mmHg 89%
    19:00 -1°C° 0 mm 0 mps 697 mmHg 90%
    20:00 -2°C° 0 mm 0 mps 697 mmHg 90%
    21:00 -2°C° 0 mm 0 mps 697 mmHg 91%
    22:00 -2°C° 0 mm 0 mps 697 mmHg 91%
    23:00 -2°C° 0 mm 0 mps 697 mmHg 91%
    Show more